This is the latest recevied weather packets stored in our database for station/object K5FEP. If no packets are shown the sender has not sent any weather packets the latest 10 day(s).
| Time | Temp. | Humidity | Pressure | Rain* | Wind** | Luminosity | Snow |
|---|---|---|---|---|---|---|---|
| 1777604444 | 11.11° C | 61% | 1012.6 hPa | 0 mm | - | 0 W/m² | - |
| 1777604143 | 11.11° C | 60% | 1012.6 hPa | 0 mm | - | 0 W/m² | - |
| 1777603841 | 11.67° C | 61% | 1012.5 hPa | 0 mm | - | 0 W/m² | - |
| 1777603537 | 11.67° C | 60% | 1012.5 hPa | 0 mm | - | 0 W/m² | - |
| 1777603232 | 11.67° C | 53% | 1012.6 hPa | 0 mm | - | 0 W/m² | - |
| 1777602928 | 11.67° C | 59% | 1012.7 hPa | 0 mm | - | 0 W/m² | - |
| 1777602624 | 11.67° C | 58% | 1012.5 hPa | 0 mm | - | 0 W/m² | - |
| 1777602319 | 11.67° C | 57% | 1012.6 hPa | 0 mm | - | 0 W/m² | - |
| 1777602015 | 11.67° C | 57% | 1012.5 hPa | 0 mm | - | 0 W/m² | - |
| 1777601710 | 11.67° C | 60% | 1012.5 hPa | 0 mm | - | 0 W/m² | - |
| 1777601406 | 12.22° C | 63% | 1012.5 hPa | 0 mm | - | 0 W/m² | - |
| 1777601102 | 11.67° C | 55% | 1012.3 hPa | 0 mm | - | 0 W/m² | - |
| 1777600800 | 11.67° C | 59% | 1012.1 hPa | 0 mm | - | 0 W/m² | - |
| 1777600495 | 11.67° C | 60% | 1011.9 hPa | 0 mm | - | 0 W/m² | - |
| 1777600190 | 12.22° C | 63% | 1011.9 hPa | 0 mm | - | 0 W/m² | - |
| 1777599887 | 12.22° C | 56% | 1011.8 hPa | 0 mm | - | 0 W/m² | - |
| 1777599583 | 12.78° C | 55% | 1011.8 hPa | 0 mm | - | 0 W/m² | - |
| 1777599281 | 12.78° C | 54% | 1011.7 hPa | 0 mm | - | 0 W/m² | - |
| 1777598976 | 12.78° C | 55% | 1011.6 hPa | 0 mm | - | 0 W/m² | - |
| 1777598674 | 12.78° C | 58% | 1011.5 hPa | 0 mm | - | 0 W/m² | - |
| 1777598369 | 13.33° C | 56% | 1011.1 hPa | 0 mm | - | 0 W/m² | - |
| 1777598068 | 13.89° C | 56% | 1011.3 hPa | 0 mm | - | 0 W/m² | - |
| 1777597767 | 13.89° C | 52% | 1011.1 hPa | 0 mm | - | 0 W/m² | - |
| 1777597462 | 13.89° C | 52% | 1011.1 hPa | 0 mm | - | 0 W/m² | - |
| 1777597159 | 13.89° C | 52% | 1011 hPa | 0 mm | - | 0 W/m² | - |
* Rain latest hour (hover to see other rain measurements)
** Current wind speed in m/s (hover to see current wind gust speed)